BLA79A LRBC-LRCL

Flight info

Callsign BLA79A
Flight time N/A
Altitude 14000
Route SALAC DCT AKUPO
Aircraft B738/M-SDE2E3FGHIRWXY/LB1

Departure

Time 2026-04-10 21:08
Airport Bacău George Enescu International Airport (LRBC)

Arrival

Time N/A
Airport Avram Iancu Cluj International Airport (LRCL)
Time Latitude Longitude Altitude Speed Heading
2026-04-10 20:51 46.53196 26.90976 624 ft 0 kts 74°
2026-04-10 21:04 46.53196 26.90978 613 ft 0 kts 74°
2026-04-10 21:04 46.53196 26.90974 613 ft 2 kts 74°
2026-04-10 21:05 46.53186 26.90926 627 ft 6 kts 74°
2026-04-10 21:05 46.53170 26.90884 623 ft 6 kts 14°
2026-04-10 21:05 46.53142 26.90882 619 ft 0 kts 356°
2026-04-10 21:06 46.53192 26.90866 619 ft 15 kts 345°
2026-04-10 21:06 46.53284 26.90823 619 ft 11 kts 324°
2026-04-10 21:06 46.53282 26.90670 618 ft 16 kts 252°
2026-04-10 21:07 46.53188 26.90624 618 ft 21 kts 168°
2026-04-10 21:07 46.53170 26.90631 617 ft 0 kts 165°
2026-04-10 21:07 46.53087 26.90663 616 ft 50 kts 165°
2026-04-10 21:08 46.52440 26.90919 623 ft 141 kts 165°
2026-04-10 21:08 46.51308 26.91373 1053 ft 186 kts 164°
2026-04-10 21:08 46.50019 26.91875 2255 ft 196 kts 165°
2026-04-10 21:08 46.48708 26.92380 3465 ft 196 kts 165°
2026-04-10 21:09 46.47380 26.92894 4671 ft 195 kts 166°
2026-04-10 21:09 46.46067 26.93401 5801 ft 196 kts 168°
2026-04-10 21:09 46.44733 26.93410 6806 ft 192 kts 205°
2026-04-10 21:09 46.43723 26.92273 7759 ft 185 kts 241°
2026-04-10 21:10 46.43382 26.90522 8717 ft 181 kts 275°
2026-04-10 21:10 46.43765 26.88820 9660 ft 179 kts 307°
2026-04-10 21:10 46.44702 26.87667 10535 ft 178 kts 330°
2026-04-10 21:10 46.45783 26.86796 11367 ft 177 kts 330°
2026-04-10 21:11 46.46863 26.85931 12189 ft 177 kts 331°
2026-04-10 21:11 46.47939 26.85073 12983 ft 176 kts 331°
2026-04-10 21:11 46.49013 26.84216 13733 ft 179 kts 331°
2026-04-10 21:11 46.50201 26.83269 13871 ft 209 kts 331°
2026-04-10 21:12 46.51588 26.82271 13356 ft 237 kts 340°
2026-04-10 21:12 46.53253 26.81551 13548 ft 262 kts 345°
2026-04-10 21:12 46.55107 26.80863 13710 ft 287 kts 345°
2026-04-10 21:12 46.57112 26.80123 13871 ft 308 kts 345°
2026-04-10 21:13 46.59255 26.79318 13980 ft 328 kts 345°
2026-04-10 21:13 46.61527 26.78448 14009 ft 347 kts 345°
2026-04-10 21:13 46.63911 26.77520 14014 ft 363 kts 345°
2026-04-10 21:13 46.66324 26.76572 13978 ft 349 kts 345°
2026-04-10 21:14 46.68584 26.75682 13958 ft 324 kts 344°
2026-04-10 21:14 46.70761 26.74815 13978 ft 332 kts 342°
2026-04-10 21:14 46.72886 26.73295 14556 ft 345 kts 322°
2026-04-10 21:15 46.75034 26.67177 14335 ft 368 kts 282°
2026-04-10 21:15 46.75494 26.63374 14277 ft 393 kts 280°
2026-04-10 21:15 46.75939 26.59367 14227 ft 403 kts 279°
2026-04-10 21:15 46.76381 26.55332 14174 ft 404 kts 280°
2026-04-10 21:16 46.76830 26.51297 14162 ft 403 kts 280°
2026-04-10 21:16 46.77289 26.47266 14157 ft 402 kts 280°
2026-04-10 21:16 46.77755 26.43242 14159 ft 402 kts 280°
2026-04-10 21:16 46.78226 26.39222 14162 ft 402 kts 280°
2026-04-10 21:17 46.78700 26.35199 14160 ft 403 kts 280°
2026-04-10 21:17 46.79176 26.31163 14170 ft 403 kts 280°
2026-04-10 21:17 46.79652 26.27129 14167 ft 404 kts 280°
2026-04-10 21:17 46.80127 26.23091 14154 ft 404 kts 280°
2026-04-10 21:18 46.80601 26.19041 14178 ft 404 kts 280°
2026-04-10 21:18 46.81074 26.14992 14170 ft 405 kts 280°
2026-04-10 21:18 46.81546 26.10938 14171 ft 405 kts 280°
2026-04-10 21:18 46.82015 26.06891 14175 ft 404 kts 280°
2026-04-10 21:19 46.82483 26.02843 14168 ft 404 kts 280°
2026-04-10 21:19 46.82950 25.98792 14177 ft 404 kts 280°
2026-04-10 21:19 46.83414 25.94744 14177 ft 405 kts 280°
2026-04-10 21:19 46.83879 25.90690 14166 ft 405 kts 280°
2026-04-10 21:20 46.84341 25.86639 14165 ft 405 kts 280°
2026-04-10 21:20 46.84803 25.82574 14169 ft 404 kts 280°
2026-04-10 21:20 46.85261 25.78525 14168 ft 404 kts 280°
2026-04-10 21:20 46.85685 25.74776 14170 ft 405 kts 280°
2026-04-10 21:21 46.86142 25.70721 14154 ft 405 kts 280°
2026-04-10 21:21 46.86597 25.66664 14166 ft 404 kts 279°
2026-04-10 21:21 46.87051 25.62606 14156 ft 404 kts 279°
2026-04-10 21:21 46.87497 25.58606 14165 ft 404 kts 279°
2026-04-10 21:22 46.87948 25.54551 14165 ft 404 kts 279°
2026-04-10 21:22 46.88398 25.50493 14158 ft 404 kts 279°
2026-04-10 21:22 46.88845 25.46443 14165 ft 404 kts 279°
2026-04-10 21:22 46.89292 25.42384 14159 ft 405 kts 279°
2026-04-10 21:23 46.89738 25.38318 14157 ft 405 kts 279°
2026-04-10 21:23 46.90181 25.34258 14160 ft 405 kts 279°
2026-04-10 21:23 46.90624 25.30189 14158 ft 405 kts 279°
2026-04-10 21:23 46.91065 25.26126 14160 ft 405 kts 279°
2026-04-10 21:24 46.91506 25.22053 14158 ft 405 kts 279°
2026-04-10 21:24 46.91945 25.17980 14155 ft 405 kts 279°
2026-04-10 21:24 46.92382 25.13913 14152 ft 405 kts 279°
2026-04-10 21:24 46.92818 25.09837 14157 ft 405 kts 279°
2026-04-10 21:25 46.93253 25.05760 14153 ft 406 kts 279°
2026-04-10 21:25 46.93687 25.01683 14150 ft 406 kts 279°
2026-04-10 21:25 46.94119 24.97600 14151 ft 406 kts 279°
2026-04-10 21:25 46.94550 24.93515 14150 ft 406 kts 279°
2026-04-10 21:26 46.94980 24.89430 14148 ft 406 kts 279°
2026-04-10 21:26 46.95409 24.85340 14148 ft 406 kts 279°
2026-04-10 21:26 46.95836 24.81254 14106 ft 407 kts 279°
2026-04-10 21:26 46.96119 24.78530 13739 ft 409 kts 279°
2026-04-10 21:27 46.96544 24.74441 13193 ft 403 kts 279°
2026-04-10 21:27 46.96958 24.70437 12656 ft 396 kts 279°
2026-04-10 21:27 46.97367 24.66471 12128 ft 391 kts 279°
2026-04-10 21:27 46.97770 24.62545 11609 ft 389 kts 279°
2026-04-10 21:28 46.98170 24.58641 11097 ft 387 kts 279°
2026-04-10 21:28 46.98565 24.54764 10595 ft 383 kts 279°
2026-04-10 21:28 46.98956 24.50927 10241 ft 380 kts 279°
2026-04-10 21:28 46.99345 24.47098 10135 ft 381 kts 279°
2026-04-10 21:29 46.99725 24.43334 10036 ft 363 kts 278°
2026-04-10 21:29 46.99797 24.39756 10016 ft 344 kts 262°
2026-04-10 21:29 46.99134 24.36499 10020 ft 326 kts 246°
2026-04-10 21:29 46.98177 24.33587 10015 ft 310 kts 244°
2026-04-10 21:30 46.97224 24.30847 10011 ft 295 kts 244°
2026-04-10 21:30 46.96330 24.28289 10009 ft 281 kts 244°
2026-04-10 21:30 46.95468 24.25797 9942 ft 270 kts 244°
2026-04-10 21:30 46.94632 24.23362 9654 ft 267 kts 244°
2026-04-10 21:31 46.93804 24.20933 9309 ft 267 kts 244°
2026-04-10 21:31 46.92978 24.18506 9004 ft 266 kts 244°
2026-04-10 21:31 46.92158 24.16091 8696 ft 264 kts 244°
2026-04-10 21:31 46.91342 24.13686 8390 ft 263 kts 244°
2026-04-10 21:32 46.90530 24.11296 8096 ft 262 kts 244°
2026-04-10 21:32 46.89718 24.08909 7801 ft 261 kts 244°
2026-04-10 21:32 46.88911 24.06540 7516 ft 260 kts 244°
2026-04-10 21:32 46.88106 24.04179 7232 ft 259 kts 244°
2026-04-10 21:33 46.87311 24.01847 7063 ft 253 kts 244°
2026-04-10 21:33 46.86537 23.99585 6932 ft 245 kts 244°
2026-04-10 21:33 46.85788 23.97396 6856 ft 236 kts 244°
2026-04-10 21:33 46.85067 23.95292 6744 ft 228 kts 244°
2026-04-10 21:34 46.84365 23.93245 6620 ft 222 kts 244°
2026-04-10 21:34 46.83777 23.91169 6366 ft 221 kts 252°
2026-04-10 21:34 46.83309 23.89057 6057 ft 223 kts 253°
2026-04-10 21:34 46.82824 23.86773 5158 ft 248 kts 253°
2026-04-10 21:35 46.82286 23.84298 4296 ft 262 kts 252°
2026-04-10 21:35 46.81717 23.81693 3524 ft 267 kts 252°
2026-04-10 21:35 46.81160 23.79182 2938 ft 260 kts 252°
2026-04-10 21:35 46.80615 23.76742 2364 ft 238 kts 252°
2026-04-10 21:36 46.80128 23.74573 1694 ft 209 kts 252°
2026-04-10 21:36 46.79711 23.72707 1390 ft 178 kts 252°
2026-04-10 21:36 46.79343 23.71038 1243 ft 170 kts 251°
2026-04-10 21:36 46.78990 23.69516 1135 ft 153 kts 250°
2026-04-10 21:37 46.78660 23.68046 1756 ft 143 kts 252°
2026-04-10 21:37 46.78409 23.66862 2959 ft 103 kts 255°
2026-04-10 21:37 46.78246 23.65873 3471 ft 109 kts 258°
2026-04-10 21:37 46.78050 23.64578 3600 ft 151 kts 258°
2026-04-10 21:38 46.77717 23.63119 4272 ft 145 kts 245°
2026-04-10 21:38 46.77398 23.61899 5250 ft 119 kts 256°
2026-04-10 21:38 46.77194 23.60717 5760 ft 124 kts 255°
2026-04-10 21:38 46.76899 23.59464 6087 ft 135 kts 249°
2026-04-10 21:39 46.76551 23.58147 6340 ft 148 kts 250°
2026-04-10 21:39 46.76166 23.56620 6238 ft 172 kts 251°
2026-04-10 21:39 46.75754 23.54930 4576 ft 187 kts 250°
2026-04-10 21:39 46.75182 23.52522 2285 ft 261 kts 251°
2026-04-10 21:40 46.74658 23.50355 2539 ft 202 kts 251°
2026-04-10 21:40 46.74223 23.48563 2732 ft 181 kts 251°
2026-04-10 21:40 46.73843 23.46840 2851 ft 179 kts 262°
2026-04-10 21:40 46.74168 23.45151 2926 ft 178 kts 306°
2026-04-10 21:41 46.75086 23.43950 2994 ft 180 kts 333°
2026-04-10 21:41 46.76290 23.43509 2946 ft 179 kts 346°
2026-04-10 21:41 46.77246 23.42423 2698 ft 180 kts 294°
2026-04-10 21:41 46.77233 23.40664 2420 ft 179 kts 244°
2026-04-10 21:42 46.76248 23.39656 1977 ft 181 kts 185°
2026-04-10 21:42 46.75083 23.40108 1831 ft 169 kts 146°
2026-04-10 21:42 46.74470 23.41466 2298 ft 170 kts 98°
2026-04-10 21:42 46.74410 23.43260 2993 ft 185 kts 95°
2026-04-10 21:43 46.74230 23.45100 3513 ft 190 kts 99°
2026-04-10 21:43 46.74158 23.46974 3715 ft 183 kts 88°
2026-04-10 21:43 46.74302 23.48763 3735 ft 185 kts 79°
2026-04-10 21:43 46.74592 23.50604 3615 ft 173 kts 74°
2026-04-10 21:44 46.74883 23.52234 3373 ft 162 kts 73°
2026-04-10 21:44 46.75194 23.53682 3331 ft 149 kts 70°
2026-04-10 21:44 46.75527 23.55125 3237 ft 151 kts 70°
2026-04-10 21:44 46.75896 23.56554 2994 ft 149 kts 67°
2026-04-10 21:45 46.76251 23.57918 2758 ft 145 kts 69°
2026-04-10 21:45 46.76594 23.59287 2481 ft 143 kts 70°
2026-04-10 21:45 46.76929 23.60662 2212 ft 144 kts 71°
2026-04-10 21:45 46.77256 23.62021 1979 ft 142 kts 70°
2026-04-10 21:46 46.77588 23.63406 1666 ft 145 kts 71°
2026-04-10 21:46 46.77904 23.64750 1506 ft 138 kts 70°
2026-04-10 21:46 46.78211 23.66043 1348 ft 139 kts 72°
2026-04-10 21:46 46.78508 23.67373 1106 ft 141 kts 72°
2026-04-10 21:47 46.78810 23.68683 1048 ft 138 kts 71°
2026-04-10 21:47 46.79098 23.69910 1229 ft 108 kts 71°
2026-04-10 21:47 46.79360 23.71042 1694 ft 119 kts 71°